Location: Béaulencourt
(50.0796°N, 2.8795°E)
Time: 20:45:54
(UTC+00:00)

Meteor 1-15 Rocket - Pass Details

Date: 20 January 2026
Orbit: 839 x 906 km, 81.2° (Epoch: 15 February)

Event Time Altitude Azimuth Distance (km) Brightness Sun altitude
Rises 06:38:20 0° 204° (SSW) 3,480 7.4 -9.3°
Reaches altitude 10° 06:40:49 10° 208° (SSW) 2,554 6.6 -8.9°
Maximum altitude 06:46:32 57° 287° (WNW) 1,058 4.4 -8.1°
Drops below altitude 10° 06:52:23 10° 6° (N) 2,598 6.6 -7.2°
Sets 06:54:56 0° 10° (N) 3,546 7.3 -6.8°
